Regional Weather Roundup
Issued by NWS Northern Indiana

Home | Current Version | Previous Version | Text Only | Print | Product List | Glossary Off
Versions: 1 2 3 4 5 6 7 8 9 10 11 12 13 14 15 16 17 18 19 20 21 22 23 24 25 26 27 28 29 30 31 32 33 34 35 36 37 38 39 40 41 42 43 44 45 46 47 48 49 50

000
ASUS43 KIWX 260400
RWRIWX

KIWX WEATHER ROUNDUP
NATIONAL WEATHER SERVICE NORTHERN INDIANA
1100 PM EST TUE NOV 25 2014

NOTE: "FAIR" INDICATES FEW OR NO CLOUDS BELOW 12,000 FEET WITH NO
SIGNIFICANT WEATHER AND/OR OBSTRUCTIONS TO VISIBILITY.

* THESE STATIONS ARE NOT UNDER NWS QUALITY CONTROL. THEY ALSO MAY NOT
  REPORT WEATHER SUCH AS PRECIPITATION OR FOG.

INZ001>027-260500-
NORTHERN INDIANA

CITY           SKY/WX    TMP DP  RH WIND       PRES   REMARKS
GARY*          CLOUDY    25  19  80 S9        30.22R WCI  15
SOUTH BEND     CLOUDY    26  19  74 SW7       30.21S WCI  18
GOSHEN         CLOUDY    26  18  71 S7        30.20F WCI  18
ANGOLA*        CLOUDY    27  19  74 CALM      30.19S
FORT WAYNE     CLOUDY    26  20  77 NW3       30.21F
PERU/GRISSOM   CLOUDY    25  23  91 E2        30.19F

$$
INZ028>050-260500-
CENTRAL INDIANA

CITY           SKY/WX    TMP DP  RH WIND       PRES   REMARKS
LAFAYETTE      CLOUDY    25  20  81 SW5       30.22S WCI  19
KOKOMO*        CLOUDY    27  19  74 CALM      30.20F
MUNCIE*        CLOUDY    28  23  81 NW3       30.19F
INDIANAPOLIS   CLOUDY    27  21  78 NW6       30.19F WCI  20

$$
MIZ043>046-050>051-056>058-064>065-071>073-077>080-260500-
SOUTHWEST LOWER MICHIGAN

CITY           SKY/WX    TMP DP  RH WIND       PRES   REMARKS
BATTLE CREEK   CLOUDY    29  20  69 S6        30.18F WCI  23
BENTON HARBOR  CLOUDY    26  19  74 S9        30.20R WCI  17
COLDWATER*     CLOUDY    28  22  76 CALM      30.19S
HILLSDALE*     CLOUDY    27  21  78 CALM      30.18S
HOLLAND        CLOUDY    30  23  75 S9        30.18R WCI  22
GRAND RAPIDS   CLOUDY    29  22  75 S6        30.18R WCI  23
KALAMAZOO      CLOUDY    28  20  71 S12       30.19S WCI  18
STURGIS*       CLOUDY    27  19  74 CALM      30.19S
THREE RIVERS*  CLOUDY    28  20  71 S5        30.20F WCI  23

$$
OHZ001>008-015>018-024>025-260500-
NORTHWEST OHIO

CITY           SKY/WX    TMP DP  RH WIND       PRES   REMARKS
FINDLAY        CLOUDY    30  21  69 CALM      30.20S
TOLEDO EXPRESS CLOUDY    28  19  69 NW3       30.22R
TOLEDO METCALF CLOUDY    29  19  66 NW3       30.23S
LIMA           CLOUDY    28  20  71 VRB3      30.19F

$$
AND FOR LAKE MICHIGAN COASTAL AND OPEN LAKE BUOY OBSERVATIONS

STATION/POSITION TEMP    WIND        PRES    VSBY  WAVE
                 AIR SEA DIR/SP/G                  HT/PER
                 (F)     (DEG/KT/KT) (MB)    (MI)  (FT/S)
CALUMET HARBOR    24     200/  5/  7 1021.6R
MICHIGAN CITY     25     140/  5/  7   N/A
SAINT JOSEPH      27     150/  5/ 12 1023.0R
SOUTH LAKE BUOY   28 42  230/  8/ 12 1022.4R         2/ 6

$$
&&



USA.gov is the U.S. government's official web portal to all federal, state and local government web resources and services.